This demonstration page uses our WeatherBlox Daily Observations layout. Learn more.

Left ArrowRight Arrow

Hourly Observations for July 5, 2016

Temp ( °F °C ) Dew Point ( °F °C ) Humidity (%) Winds ( mph kmh ) Pressure ( in mb ) Visibility ( mi km ) Precip ( " mm )
12:15 am 00:15 Clear 70 21 66 18.8 87 87 SSE 5 7 29.77 1008 10 16 N/A
12:35 am 00:35 Clear 70 21.3 67 19.3 88 88 SE 6 9 29.77 1008 10 16 N/A
12:55 am 00:55 Clear 70 21.1 67 19.2 89 89 SE 6 9 29.74 1007 10 16 N/A
1:15 am 01:15 Clear 71 21.5 67 19.5 88 88 SSE 7 11 29.71 1006 10 16 N/A
1:35 am 01:35 Clear 71 21.8 68 19.8 88 88 S 7 11 29.71 1006 10 16 N/A
1:55 am 01:55 Clear 71 21.6 68 19.9 90 90 SSE 6 9 29.71 1006 10 16 N/A
2:15 am 02:15 Clear 71 21.8 68 20.1 90 90 SSE 6 9 29.71 1006 7 11 N/A
2:35 am 02:35 Clear 71 21.5 68 20.1 92 92 SSE 5 7 29.71 1006 10 16 N/A
2:55 am 02:55 Clear 70 20.9 67 19.5 92 92 SE 5 7 29.74 1007 7 11 N/A
3:15 am 03:15 Clear 69 20.5 67 19.5 94 94 SE 3 6 29.74 1007 10 16 N/A
3:35 am 03:35 Clear 69 20.6 67 19.5 93 93 S 5 7 29.74 1007 10 16 N/A
3:55 am 03:55 Clear 69 20.4 67 19.2 93 93 S 5 7 29.71 1006 7 11 N/A
4:15 am 04:15 Clear 68 20 66 19 94 94 N N/A 29.71 1006 7 11 N/A
4:35 am 04:35 Clear 68 20 66 19 94 94 SSE 3 6 29.71 1006 7 11 N/A
4:55 am 04:55 Clear with Mist and Fog 67 19.5 65 18.6 95 95 S 3 6 29.71 1006 5 8 N/A
5:15 am 05:15 Clear with Mist and Fog 68 20.1 67 19.3 95 95 S 6 9 29.71 1006 5 8 N/A
5:35 am 05:35 Clear 69 20.7 68 20 96 96 SSW 6 9 29.74 1007 7 11 N/A
5:55 am 05:55 Clear 70 20.9 68 20 95 95 S 7 11 29.74 1007 7 11 N/A
6:15 am 06:15 Sunny 70 21.1 68 20.1 94 94 S 5 7 29.74 1007 7 11 N/A
6:35 am 06:35 Sunny with Mist and Fog 70 21.2 68 20.2 94 94 S 5 7 29.74 1007 5 8 N/A
6:55 am 06:55 Sunny 71 21.5 69 20.3 93 93 S 6 9 29.68 1005 7 11 N/A
7:15 am 07:15 Sunny 71 21.5 68 20.1 92 92 N N/A 29.68 1005 10 16 N/A
7:35 am 07:35 Sunny 71 21.5 68 20 91 91 N N/A 29.68 1005 10 16 N/A
7:55 am 07:55 Sunny 71 21.5 68 20 91 91 S 7 11 29.68 1005 10 16 N/A
8:15 am 08:15 Sunny 72 22.3 69 20.4 89 89 SSW 3 6 29.68 1005 10 16 N/A
8:35 am 08:35 Sunny 74 23.6 69 20.8 84 84 SSW 3 6 29.68 1005 10 16 N/A
8:55 am 08:55 Sunny 75 24 68 20.2 79 79 N N/A 29.68 1005 10 16 N/A
9:15 am 09:15 Sunny with Thunderstorms 77 25.2 69 20.3 74 74 N N/A 29.68 1005 10 16 N/A
9:35 am 09:35 Sunny with Thunderstorms 76 24.5 69 20.7 79 79 N N/A 29.71 1006 10 16 N/A
9:55 am 09:55 Sunny with Nearby Thunderstorms 76 24.5 70 21 81 81 N N/A 29.71 1006 10 16 N/A
10:15 am 10:15 Sunny 77 25.1 69 20.3 75 75 SSE 3 6 29.68 1005 10 16 N/A
10:35 am 10:35 Sunny 80 26.6 64 17.8 59 59 WSW 3 6 29.68 1005 10 16 N/A
10:55 am 10:55 Sunny 78 25.7 67 19.4 68 68 S 3 6 29.68 1005 10 16 N/A
11:15 am 11:15 Sunny 78 25.8 67 19.7 69 69 S 5 7 29.68 1005 10 16 N/A
11:35 am 11:35 Sunny 80 26.8 66 19 62 62 S 5 7 29.68 1005 10 16 N/A
11:55 am 11:55 Sunny 85 29.4 65 18.2 51 51 SW 7 11 29.65 1004 10 16 N/A
12:15 pm 12:15 Sunny 86 30.1 63 17.4 46 46 SSW 7 11 29.65 1004 10 16 N/A
12:35 pm 12:35 Sunny 88 31.1 63 17.3 44 44 S 5 7 29.65 1004 10 16 N/A
12:55 pm 12:55 Sunny 90 32.1 63 17.1 41 41 S 7 11 29.65 1004 10 16 N/A
1:15 pm 13:15 Sunny 92 33.1 62 16.4 37 37 SSW 10 17 29.62 1003 10 16 N/A
1:35 pm 13:35 Sunny 93 33.7 62 16.9 37 37 SSW 7 11 29.59 1002 10 16 N/A
1:55 pm 13:55 Sunny 94 34.2 62 16.9 36 36 S 9 15 29.59 1002 10 16 N/A
2:15 pm 14:15 Sunny 95 35 60 15.8 32 32 SSW 8 13 29.59 1002 10 16 N/A
2:35 pm 14:35 Sunny 96 35.5 60 15.5 30 30 SSW 9 15 29.59 1002 10 16 N/A
2:55 pm 14:55 Sunny 96 35.8 61 16 31 31 SW 6 9 29.59 1002 10 16 N/A
3:15 pm 15:15 Sunny 96 35.6 61 16 31 31 SSW 7 11 29.59 1002 10 16 N/A
3:35 pm 15:35 Sunny 96 35.8 59 15 29 29 SSW 5 7 29.59 1002 10 16 N/A
3:55 pm 15:55 Sunny 97 36 58 14.3 27 27 S 3 6 29.59 1002 10 16 N/A
4:15 pm 16:15 Sunny 95 34.9 58 14.3 29 29 N N/A 29.59 1002 10 16 N/A
4:35 pm 16:35 Partly Cloudy 88 31.1 69 20.6 54 54 NNE 7 11 29.62 1003 10 16 N/A
4:55 pm 16:55 Mostly Cloudy 84 29.1 70 21.3 63 63 NNE 10 17 29.62 1003 10 16 N/A
5:15 pm 17:15 Mostly Cloudy with Nearby Thunderstorms 83 28.6 69 20.5 62 62 W 15 24 29.62 1003 10 16 N/A
5:35 pm 17:35 Cloudy with Thunderstorms 82 27.5 66 18.9 59 59 WNW 18 30 29.68 1005 10 16 N/A
5:55 pm 17:55 Cloudy with Thunderstorms 76 24.2 62 16.9 64 64 W 10 17 29.71 1006 10 16 N/A
6:15 pm 18:15 Cloudy with Thunderstorms 77 25.1 63 17 61 61 NW 7 11 29.65 1004 10 16 N/A
6:35 pm 18:35 Partly Cloudy 76 24.3 65 18.5 70 70 SE 5 7 29.71 1006 10 16 N/A
6:55 pm 18:55 Sunny with Nearby Thunderstorms 75 23.9 64 17.9 69 69 ENE 7 11 29.68 1005 10 16 N/A
7:15 pm 19:15 Sunny 74 23.1 61 16.1 65 65 E 8 13 29.68 1005 10 16 N/A
7:35 pm 19:35 Sunny 74 23.2 61 16.1 64 64 N N/A 29.68 1005 10 16 N/A
7:55 pm 19:55 Sunny 71 21.5 64 17.8 80 80 NE 6 9 29.68 1005 10 16 N/A
8:15 pm 20:15 Sunny 72 22.2 62 16.9 72 72 ENE 8 13 29.68 1005 10 16 N/A
8:35 pm 20:35 Sunny 71 21.8 63 17 74 74 NNE 6 9 29.68 1005 10 16 N/A
8:55 pm 20:55 Sunny 70 21.3 64 17.8 81 81 NNW 5 7 29.68 1005 10 16 N/A
9:15 pm 21:15 Clear 71 21.5 63 17.4 78 78 W 3 6 29.68 1005 10 16 N/A
9:35 pm 21:35 Clear 74 23.5 61 15.9 62 62 S 7 11 29.68 1005 10 16 N/A
9:55 pm 21:55 Clear 75 24 60 15.8 60 60 N N/A 29.68 1005 10 16 N/A
10:15 pm 22:15 Clear 71 21.4 64 17.9 81 81 N 7 11 29.71 1006 10 16 N/A
10:35 pm 22:35 Clear with Nearby Thunderstorms 70 20.9 65 18.2 85 85 N N/A 29.74 1007 10 16 N/A
10:55 pm 22:55 Clear with Nearby Thunderstorms 69 20.6 65 18.5 88 88 N N/A 29.74 1007 10 16 N/A
11:15 pm 23:15 Clear 70 21.3 65 18.5 84 84 N N/A 29.71 1006 10 16 N/A
11:35 pm 23:35 Clear 69 20.7 66 18.8 89 89 ESE 3 6 29.77 1008 10 16 N/A
11:55 pm 23:55 Partly Cloudy 72 22 64 17.6 76 76 SW 9 15 29.77 1008 10 16 N/A

Powered by AerisWeather